User: anonymous   Login
Location: Caltech
(34.1382°N, 118.1253°W)
Time: 03:16:36
(UTC-07:00)
Language:

BREEZE M DEB (TANK) - Orbit

View from above orbital plane
View from above orbital plane
View from above satellite
View from above satellite

Ground track
Ground track

The orbit data is extracted from the following two-line orbital elements,

1 33437U 08057B   15084.02298304  .00005889  00000-0  14841-2 0  9996
2 33437 049.5458 222.2473 5008478 204.1503 095.8036 05.57102897128260
Epoch (UTC): 25 March 2015 00:33:05
Eccentricity: 0.5008478
inclination: 49.5458°
perigee height: 331 km
apogee height: 13795 km
right ascension of ascending node: 222.2473°
argument of perigee: 204.1503°
revolutions per day: 5.57102897
mean anomaly at epoch: 95.8036°
orbit number at epoch: 12826

The dashed part of the orbit path shows where the satellite is in the earth's shadow,  

DLR